Regional Weather Roundup
Issued by NWS Charleston, WV

Home | Current Version | Previous Version | Graphics & Text | Print | Product List | Glossary On
Versions: 1 2 3 4 5 6 7 8 9 10 11 12 13 14 15 16 17 18 19 20 21 22 23 24 25 26 27 28 29 30 31 32 33 34 35 36 37 38 39 40 41 42 43 44 45 46 47 48 49 50
000
ASUS41 KRLX 022110
RWRRLX
West Virginia Regional Weather Roundup
National Weather Service Charleston WV
400 PM EST MON MAR 02 2015

Note: "fair" indicates few or no clouds below 12,000 feet with no
significant weather and/or obstructions to visibility.

WVZ003-022200-
Northern Panhandle of West Virginia

CITY           SKY/WX    TMP DP  RH WIND       PRES   REMARKS
WHEELING       MOSUNNY   31  13  47 W12       30.40S
$$

WVZ009-022200-
Northwest West Virginia

CITY           SKY/WX    TMP DP  RH WIND       PRES   REMARKS
PARKERSBURG    MOSUNNY   35  14  42 NW9       30.45F
$$

WVZ006-022200-
Western West Virginia

CITY           SKY/WX    TMP DP  RH WIND       PRES   REMARKS
HUNTINGTON     SUNNY     39  20  46 VRB5      30.41S
$$

WVZ015-022200-
West Central West Virginia

CITY           SKY/WX    TMP DP  RH WIND       PRES   REMARKS
CHARLESTON     MOSUNNY   39  18  42 N7        30.39S
$$

WVZ022-031-022200-
North Central West Virginia

CITY           SKY/WX    TMP DP  RH WIND       PRES   REMARKS
CLARKSBURG     SUNNY     35  18  49 NW9       30.37F
MORGANTOWN     SUNNY     35  13  40 NW12      30.38S
$$

WVZ025-035-042-045-022200-
Southern West Virginia

CITY           SKY/WX    TMP DP  RH WIND       PRES   REMARKS
BECKLEY        SUNNY     36  13  38 NW14      30.29R
LOGAN            N/A     39  16  38 N7        30.31S
BLUEFIELD      SUNNY     40  19  43 NW10      30.27S
LEWISBURG      SUNNY     41  13  32 N6        30.28R
$$

WVZ047-022200-
Northern Mountains of West Virginia

CITY           SKY/WX    TMP DP  RH WIND       PRES   REMARKS
ELKINS         SUNNY     33  16  49 NW10      30.32S
$$

WVZ052-022200-
Eastern Panhandle of West Virginia

CITY           SKY/WX    TMP DP  RH WIND       PRES   REMARKS
MARTINSBURG    SUNNY     41  14  33 NW16G31   30.31R
PETERSBURG     SUNNY     42   8  24 NW15      30.32R
$$


USA.gov is the U.S. government's official web portal to all federal, state and local government web resources and services.